DM2KB-13 Weather Reports


time (UTC)temp
C
wind
direction
speed
KPH
gust
KPH
rain 1hr
cm
rain 24hr
cm
rain mn
cm
humidity
%
barometer
mb
20260502163114 22 202 0.0 3.2 0.00 0.00 0.00 60 1013.7
20260502162613 22 202 0.0 1.6 0.00 0.00 0.00 63 1013.8
20260502162113 22 202 1.6 4.8 0.00 0.00 0.00 64 1014.0
20260502161613 22 202 1.6 6.4 0.00 0.00 0.00 66 1014.2
20260502161112 22 191 1.6 6.4 0.00 0.00 0.00 69 1014.3
20260502160612 22 181 3.2 4.8 0.00 0.00 0.00 70 1014.4
20260502160112 21 208 3.2 9.7 0.00 0.00 0.00 72 1014.6
20260502152110 21 236 1.6 4.8 0.00 0.00 0.00 72 1014.8
20260502151609 21 225 3.2 3.2 0.00 0.00 0.00 70 1014.8
20260502151109 21 206 3.2 6.4 0.00 0.00 0.00 70 1015.0
20260502150609 21 202 1.6 6.4 0.00 0.00 0.00 69 1015.1
20260502150108 22 224 1.6 9.7 0.00 0.00 0.00 67 1015.2
20260502140105 24 290 6.4 19.3 0.00 0.00 0.00 50 1015.7
20260502130602 25 227 6.4 24.1 0.00 0.00 0.00 49 1015.9
20260502123600 25 194 6.4 16.1 0.00 0.00 0.00 49 1016.2
20260502123100 25 258 4.8 17.7 0.00 0.00 0.00 50 1016.2
20260502122600 25 208 4.8 16.1 0.00 0.00 0.00 50 1016.3
20260502122059 25 337 6.4 24.1 0.00 0.00 0.00 49 1016.4
20260502121559 25 344 6.4 19.3 0.00 0.00 0.00 49 1016.5
20260502121059 25 211 9.7 19.3 0.00 0.00 0.00 48 1016.6
20260502120559 25 181 9.7 22.5 0.00 0.00 0.00 48 1016.5
20260502115558 25 171 8.0 11.3 0.00 0.00 0.00 47 1016.6
20260502115058 25 194 8.0 20.9 0.00 0.00 0.00 47 1016.7
20260502114557 25 263 6.4 14.5 0.00 0.00 0.00 47 1016.8
20260502114057 25 215 8.0 24.1 0.00 0.00 0.00 47 1016.9
20260502113557 25 208 8.0 12.9 0.00 0.00 0.00 48 1016.9
20260502113057 24 235 8.0 24.1 0.00 0.00 0.00 48 1017.0
20260502112556 24 197 6.4 17.7 0.00 0.00 0.00 49 1017.0
20260502112056 24 287 8.0 14.5 0.00 0.00 0.00 48 1017.1
20260502111556 24 194 8.0 17.7 0.00 0.00 0.00 48 1017.2
20260502111055 24 296 6.4 19.3 0.00 0.00 0.00 47 1017.1
20260502110555 24 258 6.4 12.9 0.00 0.00 0.00 48 1017.1
20260502110055 24 201 8.0 19.3 0.00 0.00 0.00 47 1017.3
20260502105555 24 250 6.4 19.3 0.00 0.00 0.00 48 1017.2
20260502105054 24 208 4.8 12.9 0.00 0.00 0.00 48 1017.3
20260502104554 24 263 6.4 16.1 0.00 0.00 0.00 48 1017.4
20260502104054 23 221 4.8 16.1 0.00 0.00 0.00 48 1017.4
20260502103553 23 273 6.4 16.1 0.00 0.00 0.00 48 1017.4
20260502103053 24 197 8.0 16.1 0.00 0.00 0.00 47 1017.5
20260502102553 23 213 8.0 17.7 0.00 0.00 0.00 47 1017.6
20260502102053 23 216 6.4 14.5 0.00 0.00 0.00 48 1017.7
20260502101552 23 247 8.0 16.1 0.00 0.00 0.00 48 1017.7
20260502101052 23 285 6.4 17.7 0.00 0.00 0.00 47 1017.8
20260502100552 23 287 6.4 14.5 0.00 0.00 0.00 47 1017.8
20260502091049 22 179 6.4 16.1 0.00 0.00 0.00 47 1018.0
20260502090548 22 215 6.4 17.7 0.00 0.00 0.00 48 1018.0
20260502071042 17 194 6.4 12.9 0.00 0.00 0.00 55 1018.1
20260502070542 17 200 6.4 12.9 0.00 0.00 0.00 54 1018.2
20260502070041 16 191 4.8 14.5 0.00 0.00 0.00 56 1018.1
20260502065541 16 179 4.8 12.9 0.00 0.00 0.00 56 1018.2
20260502065041 16 186 4.8 9.7 0.00 0.00 0.00 56 1018.2
20260502064540 16 139 4.8 11.3 0.00 0.00 0.00 57 1018.3
20260502064040 16 175 4.8 8.0 0.00 0.00 0.00 57 1018.4
20260502063540 15 200 6.4 16.1 0.00 0.00 0.00 57 1018.4
20260502063040 15 202 6.4 16.1 0.00 0.00 0.00 58 1018.5
20260502062539 15 222 6.4 12.9 0.00 0.00 0.00 58 1018.5
20260502062039 15 194 4.8 12.9 0.00 0.00 0.00 59 1018.4
20260502061539 14 192 4.8 11.3 0.00 0.00 0.00 60 1018.4
20260502061038 14 189 3.2 6.4 0.00 0.00 0.00 61 1018.3
20260502060538 14 178 3.2 6.4 0.00 0.00 0.00 61 1018.3
20260502060038 13 146 3.2 11.3 0.00 0.00 0.00 62 1018.2
20260502055538 13 169 4.8 11.3 0.00 0.00 0.00 62 1018.3
20260502055037 13 154 4.8 9.7 0.00 0.00 0.00 62 1018.3
20260502054537 13 158 4.8 9.7 0.00 0.00 0.00 63 1018.4
20260502054037 13 184 3.2 8.0 0.00 0.00 0.00 63 1018.4
20260502053536 13 137 3.2 8.0 0.00 0.00 0.00 64 1018.3
20260502053036 12 178 3.2 9.7 0.00 0.00 0.00 64 1018.4
20260502052536 12 183 3.2 6.4 0.00 0.00 0.00 65 1018.3
20260502052036 12 157 4.8 9.7 0.00 0.00 0.00 65 1018.4
20260502051535 12 192 3.2 9.7 0.00 0.00 0.00 65 1018.4
20260502051035 12 196 3.2 6.4 0.00 0.00 0.00 65 1018.3
20260502050535 12 198 4.8 6.4 0.00 0.00 0.00 65 1018.3
20260502050035 12 194 3.2 6.4 0.00 0.00 0.00 65 1018.2
20260502045534 12 186 3.2 6.4 0.00 0.00 0.00 65 1018.3
20260502045034 12 181 3.2 6.4 0.00 0.00 0.00 65 1018.3
20260502044534 11 193 3.2 6.4 0.00 0.00 0.00 66 1018.3
20260502044033 11 174 3.2 6.4 0.00 0.00 0.00 66 1018.3
20260502043533 11 215 3.2 4.8 0.00 0.00 0.00 66 1018.4
20260502043033 11 178 3.2 4.8 0.00 0.00 0.00 66 1018.4
20260502042533 11 177 3.2 6.4 0.00 0.00 0.00 66 1018.5
20260502042032 11 192 3.2 6.4 0.00 0.00 0.00 67 1018.5
20260502041532 11 174 3.2 4.8 0.00 0.00 0.00 67 1018.5
20260502041032 11 158 1.6 4.8 0.00 0.00 0.00 67 1018.4
20260502040531 11 171 1.6 3.2 0.00 0.00 0.00 66 1018.5
20260502040031 11 172 3.2 4.8 0.00 0.00 0.00 66 1018.6
20260502035531 11 171 3.2 4.8 0.00 0.00 0.00 66 1018.6
20260502035031 11 152 3.2 8.0 0.00 0.00 0.00 67 1018.7
20260502034530 11 132 1.6 4.8 0.00 0.00 0.00 66 1018.6
20260502034030 12 163 1.6 3.2 0.00 0.00 0.00 65 1018.7
20260502033530 12 177 1.6 4.8 0.00 0.00 0.00 65 1018.8
20260502033029 12 177 1.6 3.2 0.00 0.00 0.00 65 1018.8
20260502032529 12 177 1.6 3.2 0.00 0.00 0.00 65 1018.9
20260502032029 12 171 1.6 4.8 0.00 0.00 0.00 65 1018.8
20260502031529 12 171 1.6 4.8 0.00 0.00 0.00 65 1018.8
20260502031028 12 161 1.6 4.8 0.00 0.00 0.00 65 1018.8
20260502030528 12 171 1.6 4.8 0.00 0.00 0.00 65 1018.9
20260502030028 12 181 1.6 4.8 0.00 0.00 0.00 65 1018.9
20260502025527 12 182 3.2 4.8 0.00 0.00 0.00 66 1018.9
20260502025027 12 197 3.2 6.4 0.00 0.00 0.00 66 1019.0
20260502024527 11 187 1.6 9.7 0.00 0.00 0.00 66 1019.0
20260502024027 11 190 1.6 4.8 0.00 0.00 0.00 67 1019.1
20260502023526 11 160 1.6 4.8 0.00 0.00 0.00 67 1019.0
20260502023026 11 171 1.6 3.2 0.00 0.00 0.00 66 1019.1
20260502022526 11 160 1.6 4.8 0.00 0.00 0.00 66 1019.1
20260502022025 12 155 0.0 4.8 0.00 0.00 0.00 65 1019.1
20260502021525 12 146 0.0 1.6 0.00 0.00 0.00 65 1019.2
20260502021025 12 146 0.0 1.6 0.00 0.00 0.00 64 1019.2
20260502020525 12 146 1.6 3.2 0.00 0.00 0.00 64 1019.2
20260502020024 12 146 1.6 4.8 0.00 0.00 0.00 64 1019.3
20260502015524 12 158 1.6 4.8 0.00 0.00 0.00 63 1019.3
20260502015024 12 210 1.6 8.0 0.00 0.00 0.00 63 1019.4
20260502014523 12 142 1.6 8.0 0.00 0.00 0.00 62 1019.4
20260502014023 12 154 1.6 4.8 0.00 0.00 0.00 62 1019.4
20260502013523 13 186 1.6 6.4 0.00 0.00 0.00 61 1019.4
20260502013023 13 181 3.2 4.8 0.00 0.00 0.00 61 1019.5
20260502012522 13 179 3.2 6.4 0.00 0.00 0.00 61 1019.6
20260502012022 13 199 1.6 4.8 0.00 0.00 0.00 61 1019.6
20260502011522 13 189 3.2 4.8 0.00 0.00 0.00 61 1019.7
20260502011021 13 185 1.6 4.8 0.00 0.00 0.00 61 1019.7
20260502010521 13 167 0.0 6.4 0.00 0.00 0.00 61 1019.8
20260502010021 13 198 0.0 1.6 0.00 0.00 0.00 60 1019.8
20260502005521 13 198 0.0 3.2 0.00 0.00 0.00 59 1019.9
20260502005020 13 198 0.0 3.2 0.00 0.00 0.00 59 1020.0
20260502004520 13 198 1.6 1.6 0.00 0.00 0.00 59 1020.0
20260502004020 13 198 1.6 3.2 0.00 0.00 0.00 58 1020.0
20260502003519 14 198 1.6 3.2 0.00 0.00 0.00 58 1020.1
20260502003019 14 203 1.6 6.4 0.00 0.00 0.00 57 1020.1
20260502002519 14 169 3.2 12.9 0.00 0.00 0.00 57 1020.2
20260502002019 14 188 3.2 9.7 0.00 0.00 0.00 57 1020.1
20260502001518 14 192 3.2 9.7 0.00 0.00 0.00 56 1020.2
20260502001018 14 154 1.6 6.4 0.00 0.00 0.00 56 1020.2
20260502000518 15 181 3.2 6.4 0.00 0.00 0.00 56 1020.3
20260502000018 15 189 1.6 8.0 0.00 0.00 0.00 55 1020.3
20260501235517 15 142 3.2 6.4 0.00 0.00 0.00 55 1020.4
20260501235017 15 146 3.2 6.4 0.00 0.00 0.00 55 1020.4
20260501234517 15 174 3.2 6.4 0.00 0.00 0.00 55 1020.4
20260501234016 15 219 3.2 6.4 0.00 0.00 0.00 55 1020.4
20260501233516 15 200 3.2 6.4 0.00 0.00 0.00 55 1020.5
20260501233016 15 179 3.2 6.4 0.00 0.00 0.00 54 1020.5
20260501232516 15 184 3.2 6.4 0.00 0.00 0.00 54 1020.5
20260501232015 15 195 3.2 9.7 0.00 0.00 0.00 54 1020.6
20260501231515 15 140 3.2 6.4 0.00 0.00 0.00 54 1020.6
20260501231015 15 176 3.2 9.7 0.00 0.00 0.00 54 1020.6
20260501230514 15 175 3.2 9.7 0.00 0.00 0.00 54 1020.5
20260501230014 15 167 3.2 9.7 0.00 0.00 0.00 54 1020.6
20260501225514 15 161 3.2 11.3 0.00 0.00 0.00 54 1020.6
20260501225014 15 136 3.2 9.7 0.00 0.00 0.00 54 1020.6
20260501224513 15 127 4.8 11.3 0.00 0.00 0.00 54 1020.7
20260501224013 15 141 4.8 12.9 0.00 0.00 0.00 54 1020.7
20260501223513 15 136 4.8 8.0 0.00 0.00 0.00 54 1020.7
20260501223012 15 135 4.8 12.9 0.00 0.00 0.00 53 1020.7
20260501222512 15 189 4.8 12.9 0.00 0.00 0.00 53 1020.7
20260501222012 15 155 4.8 11.3 0.00 0.00 0.00 52 1020.8
20260501221512 15 143 3.2 11.3 0.00 0.00 0.00 52 1020.8
20260501221011 16 137 3.2 8.0 0.00 0.00 0.00 52 1020.8
20260501220511 16 158 3.2 6.4 0.00 0.00 0.00 52 1020.8
20260501220011 16 197 3.2 8.0 0.00 0.00 0.00 51 1020.9
20260501215510 16 194 3.2 9.7 0.00 0.00 0.00 51 1020.9
20260501215010 16 198 3.2 6.4 0.00 0.00 0.00 51 1020.9
20260501214510 16 198 1.6 4.8 0.00 0.00 0.00 52 1020.9
20260501214010 16 198 3.2 4.8 0.00 0.00 0.00 51 1021.0
20260501213509 16 198 3.2 4.8 0.00 0.00 0.00 50 1020.9
20260501213009 16 198 3.2 8.0 0.00 0.00 0.00 51 1020.9
20260501212509 16 133 3.2 6.4 0.00 0.00 0.00 51 1020.9
20260501212008 16 178 3.2 6.4 0.00 0.00 0.00 51 1020.9
20260501211508 16 180 3.2 9.7 0.00 0.00 0.00 51 1020.9
20260501211008 16 157 3.2 9.7 0.00 0.00 0.00 51 1020.9
20260501210508 16 167 1.6 8.0 0.00 0.00 0.00 52 1020.9
20260501210007 16 162 1.6 4.8 0.00 0.00 0.00 51 1021.0
20260501205507 16 166 1.6 3.2 0.00 0.00 0.00 52 1020.9
20260501205007 16 177 1.6 4.8 0.00 0.00 0.00 51 1021.0
20260501204507 16 177 1.6 4.8 0.00 0.00 0.00 51 1021.0
20260501204006 16 177 1.6 4.8 0.00 0.00 0.00 50 1021.0
20260501203506 16 162 1.6 4.8 0.00 0.00 0.00 50 1021.0
20260501203006 16 158 1.6 4.8 0.00 0.00 0.00 50 1021.1
20260501202505 16 154 1.6 4.8 0.00 0.00 0.00 50 1021.1
20260501202005 16 152 1.6 4.8 0.00 0.00 0.00 49 1021.0
20260501201505 16 148 1.6 3.2 0.00 0.00 0.00 48 1021.0
20260501201005 17 144 1.6 3.2 0.00 0.00 0.00 48 1021.1
20260501200504 17 144 1.6 3.2 0.00 0.00 0.00 47 1021.1
20260501200004 17 144 3.2 6.4 0.00 0.00 0.00 47 1021.1
20260501195504 17 169 3.2 4.8 0.00 0.00 0.00 46 1021.1
20260501195003 17 169 3.2 4.8 0.00 0.00 0.00 45 1021.1
20260501194503 18 171 3.2 4.8 0.00 0.00 0.00 44 1021.1
20260501194003 18 171 1.6 4.8 0.00 0.00 0.00 43 1021.0
20260501193502 18 171 1.6 3.2 0.00 0.00 0.00 43 1021.0
20260501193002 18 171 1.6 3.2 0.00 0.00 0.00 42 1021.0
20260501192502 19 171 1.6 4.8 0.00 0.00 0.00 41 1021.0
20260501192002 19 171 1.6 3.2 0.00 0.00 0.00 41 1021.0
20260501191501 20 181 3.2 6.4 0.00 0.00 0.00 41 1021.0
20260501191001 20 179 3.2 4.8 0.00 0.00 0.00 40 1021.1
20260501190501 20 184 3.2 9.7 0.00 0.00 0.00 39 1021.0
20260501190001 20 167 3.2 11.3 0.00 0.00 0.00 38 1021.0
20260501185500 21 166 3.2 9.7 0.00 0.00 0.00 38 1021.0
20260501185000 21 183 3.2 9.7 0.00 0.00 0.00 37 1021.1
20260501184500 21 216 3.2 6.4 0.00 0.00 0.00 36 1021.0
20260501183959 21 198 3.2 6.4 0.00 0.00 0.00 36 1021.0
20260501183459 21 175 4.8 11.3 0.00 0.00 0.00 35 1021.0
20260501182959 21 217 4.8 12.9 0.00 0.00 0.00 34 1021.0
20260501182459 22 189 4.8 11.3 0.00 0.00 0.00 34 1021.0
20260501181958 22 198 4.8 14.5 0.00 0.00 0.00 33 1021.0
20260501181458 22 137 6.4 14.5 0.00 0.00 0.00 33 1021.0
20260501180958 22 216 6.4 12.9 0.00 0.00 0.00 33 1021.0
20260501180457 22 200 6.4 12.9 0.00 0.00 0.00 32 1021.0
20260501175957 22 191 8.0 14.5 0.00 0.00 0.00 32 1020.9
20260501175457 22 192 8.0 17.7 0.00 0.00 0.00 31 1020.9
20260501174957 22 192 8.0 14.5 0.00 0.00 0.00 31 1020.9
20260501174456 23 166 8.0 14.5 0.00 0.00 0.00 31 1020.9
20260501173956 23 192 8.0 22.5 0.00 0.00 0.00 31 1020.9
20260501173456 23 209 6.4 16.1 0.00 0.00 0.00 30 1020.8
20260501172955 23 159 8.0 16.1 0.00 0.00 0.00 31 1020.8
20260501172455 23 193 6.4 19.3 0.00 0.00 0.00 30 1020.9
20260501171955 23 200 6.4 14.5 0.00 0.00 0.00 31 1020.8
20260501171455 23 205 6.4 12.9 0.00 0.00 0.00 30 1020.8
20260501170954 23 188 6.4 19.3 0.00 0.00 0.00 30 1020.9
20260501170454 23 221 6.4 14.5 0.00 0.00 0.00 30 1020.8
20260501165954 23 196 6.4 14.5 0.00 0.00 0.00 30 1020.9
20260501165453 23 209 6.4 17.7 0.00 0.00 0.00 29 1020.9
20260501164953 23 221 8.0 19.3 0.00 0.00 0.00 29 1020.9
20260501164453 24 167 9.7 14.5 0.00 0.00 0.00 29 1020.9
20260501163953 24 166 9.7 20.9 0.00 0.00 0.00 28 1020.9